Home   Weather   Arlington   Past weeks

Flag for USA Past Weather in Arlington, Texas, USA — Yesterday and Last 2 Weeks

Now
90 °F

Sunny.


Feels Like: 94 °F
Forecast: 74 / 88 °F
Wind: 3 mph from East

Location: Arlington Municipal Airport

Current Time: Aug 31, 2016 at 8:50:04 PM

Latest Report: Aug 31, 2016 at 7:53 PM


Visibility: 10 mi

Pressure: 29.89 "Hg

Humidity: 48%

Dew Point: 68 °F

Location of ArlingtonLocation

Past Weather in Arlington — Graph

°F

Arlington Temperature Yesterday

Maximum temperature yesterday: 93 °F (at 3:53 PM)
Minimum temperature yesterday: 71 °F (at 3:53 AM)
Average temperature yesterday: 81 °F

High & Low Weather Summary for the Past Weeks

 TemperatureHumidityPressure
High94 °F (Aug 31, 3:53 PM)94% (Aug 17, 10:58 AM)30.13 "Hg (Aug 17, 10:58 AM)
Low71 °F (Aug 28, 5:53 AM)34% (Aug 21, 2:53 PM)29.81 "Hg (Aug 20, 2:53 AM)
Average80 °F76%29.99 "Hg
* Reported Aug 16 7:53 PM — Aug 31 7:53 PM, Arlington, Weather by CustomWeather, © 2016

Note: Actual official high and low records may vary slightly from our data, if they occured in-between our weather recording intervals... More about our weather records

Advertising

Arlington Weather History for the Previous 24 Hours

Scroll right to see more
 ConditionsComfort  
Time TempWeatherWind HumidityBarometerVisibility
7:53 PM
Wed, Aug 31
90 °FSunny.3 mph48%29.89 "Hg10 mi
6:53 PM91 °FSunny.8 mph45%29.88 "Hg10 mi
5:53 PM93 °FPassing clouds.12 mph46%29.87 "Hg10 mi
4:53 PM94 °FScattered clouds.6 mph41%29.88 "Hg10 mi
3:53 PM94 °FScattered clouds.9 mph43%29.90 "Hg10 mi
2:53 PM92 °FPartly sunny.5 mph46%29.92 "Hg10 mi
1:53 PM91 °FScattered clouds.7 mph50%29.96 "Hg10 mi
12:53 PM88 °FBroken clouds.10 mph59%29.98 "Hg10 mi
11:53 AM90 °FBroken clouds.5 mph54%29.99 "Hg10 mi
10:53 AM88 °FScattered clouds.6 mph61%29.99 "Hg10 mi
9:53 AM84 °FSunny.3 mph70%29.99 "Hg10 mi
8:53 AM82 °FSunny.3 mph77%29.99 "Hg10 mi
7:53 AM74 °FPassing clouds.No wind94%29.99 "Hg8 mi
6:53 AM73 °FClear.No wind94%29.98 "Hg8 mi
5:53 AM73 °FClear.No wind94%29.97 "Hg9 mi
4:53 AM73 °FClear.No wind94%29.97 "Hg9 mi
3:53 AM74 °FClear.No wind94%29.98 "Hg10 mi
2:53 AM75 °FClear.No wind90%29.98 "Hg10 mi
1:53 AM76 °FClear.5 mph88%29.98 "Hg10 mi
12:53 AM76 °FClear.No wind88%29.98 "Hg10 mi
11:53 PM
Tue, Aug 30
76 °FClear.No wind88%29.98 "Hg10 mi
10:53 PM79 °FClear.No wind79%29.98 "Hg9 mi
9:53 PM79 °FClear.3 mph79%29.98 "Hg10 mi
8:53 PM79 °FSunny.No wind82%29.95 "Hg10 mi
8:04 PM82 °FSunny.6 mph67%29.97 "Hg10 mi
Weather by CustomWeather, © 2016

See weather overviewHow to use our weather pages